Location: Bastelaar
(51.0950°N, 3.8602°E)
Time: 15:33:21
(UTC+00:00)

Resurs 1-3 - Pass Details

Date: 18 November 2025
Orbit: 613 x 615 km, 97.7° (Epoch: 13 December)

Event Time Altitude Azimuth Distance (km) Brightness Sun altitude
Rises 18:33:01 0° 180° (S) 2,873 7.0 -24.8°
Reaches altitude 10° 18:35:15 10° 186° (S) 1,973 6.2 -25.2°
Maximum altitude 18:39:24 48° 261° (W) 814 4.5 -25.8°
Drops below altitude 10° 18:43:35 10° 336° (NNW) 1,987 6.4 -26.5°
Sets 18:45:51 0° 342° (NNW) 2,897 7.2 -26.8°
